Epoch = 2008 Aug. 2.0 TT T = 2008 Aug. 18.59446 TT Peri. = 141.31392 e = 0.6137675 Node = 217.98436 2000.0 q = 2.3173377 AU Incl. = 25.86017 a = 5.9998511 AU n = 0.06706460 P = 14.70 years
m1 = 4.3 + 5 logΔ + 30.0 log r(t - 50)